Weather Roundup
Issued by NWS Springfield, MO

Home | Current Version | Previous Version | Text Only | Print | Product List | Glossary On
Versions: 1 2 3 4 5 6 7 8 9 10 11 12 13 14 15 16 17 18 19 20 21 22 23 24 25 26 27 28 29 30 31 32 33 34 35 36 37 38 39 40 41 42 43 44 45 46 47 48 49 50
000
NZUS99 KSGF 241959
HRRSGF

HOURLY WEATHER
NATIONAL WEATHER SERVICE SPRINGFIELD MO
200 PM CST SAT JAN 24 2015

......SGF CWA......

CITY           SKY/WX    TMP DP  RH WIND       PRES   REMARKS
SPRINGFIELD    SUNNY     55  32  41 W10       29.90F
JOPLIN         SUNNY     54  34  46 SW13      29.93F
WEST PLAINS    SUNNY     56  29  35 W12       29.88F
ROLLA          SUNNY     53  32  44 W12       29.81F
OSAGE BEACH    SUNNY     55  30  38 W14       29.85F

......SURROUNDING SGF CWA......

CITY           SKY/WX    TMP DP  RH WIND       PRES   REMARKS
CHANUTE        SUNNY     61  31  32 W12       29.90F
PARSONS        SUNNY     62  33  33 SW12      29.92F
COFFEYVILLE    SUNNY     59  32  36 SW10      29.93F
EMPORIA        MOSUNNY   60  28  29 W17G28    29.85F
SILOAM SPRINGS SUNNY     55  32  41 W12       29.97F
HARRISON AR    SUNNY     56  29  35 NW10      29.92F
NEAR YELLVILLE SUNNY     57  30  35 NW9       29.91F

......KANSAS AND MISSOURI......

CITY           SKY/WX    TMP DP  RH WIND       PRES   REMARKS
KANSAS CTY INT PTSUNNY   57  30  35 W16G24    29.80F
DOWNTOWN KC    SUNNY     58  30  34 SW12      29.81F
COLUMBIA       SUNNY     53  33  46 W14       29.81F
SEDALIA        SUNNY     53  33  46 SW15      29.83F
ST JOSEPH      MOSUNNY   56  30  37 SW15      29.78F
ST LOUIS       MOSUNNY   53  32  44 SW10      29.79F
SPIRIT OF STL  MOSUNNY   52  32  46 W12       29.78F
KIRKSVILLE     MOSUNNY   51  33  50 SW12G20   29.74F
WICHITA        MOSUNNY   63  26  24 W23G29    29.91F
TOPEKA         MOSUNNY   58  29  33 W14G22    29.82F
OLATHE         SUNNY     56  31  38 W15G21    29.82F

......TENNESSEE......

CITY           SKY/WX    TMP DP  RH WIND       PRES   REMARKS
MEMPHIS        SUNNY     56  28  34 W12       29.95F
NASHVILLE      SUNNY     48  33  56 SW7       29.87F

......ARKANSAS.......

CITY           SKY/WX    TMP DP  RH WIND       PRES   REMARKS
FAYETTEVILLE   SUNNY     54  33  45 W9        29.97F
FT SMITH       SUNNY     53  31  42 SW10      30.00F
LITTLE ROCK    SUNNY     62  26  25 NW6       29.96F

......OKLAHOMA.......

CITY           SKY/WX    TMP DP  RH WIND       PRES   REMARKS
TULSA          MOSUNNY   60  33  36 W10       29.97F
PONCA CITY     SUNNY     61  30  31 W12       29.96F
MCALESTER      MOSUNNY   57  33  40 NW7       30.02F
OKLAHOMA CITY  MOSUNNY   60  31  33 W8        30.02F

......IOWA............

CITY           SKY/WX    TMP DP  RH WIND       PRES   REMARKS
DES MOINES     PTSUNNY   53  32  44 W13       29.68F
QUAD CITIES    SUNNY     47  35  63 W9        29.67F

......ILLINOIS........

CITY           SKY/WX    TMP DP  RH WIND       PRES   REMARKS
QUINCY         SUNNY     50  33  52 SW15      29.73F
CHICAGO        CLOUDY    39  30  70 W12       29.63S WCI  32




USA.gov is the U.S. government's official web portal to all federal, state and local government web resources and services.